QPF
0.00 0.00 0.00 0.00 0.00 0.00 0.00 0.00 0.00 0.00 0.00 0.00 0.00 0.00 0.00 0.00 0.00 0.00 0.00 0.00 0.00 0.00 0.00 0.00 0.00 0.00 0.00 0.00 0.00 0.00 0.00 0.00 0.00 0.00 0.00 0.00 0.00 0.00 0.00 0.00 0.00 0.00 0.00 0.00
0.00 0.00 0.00 0.00 0.00 0.00 0.00 0.00 0.00 0.00 0.00 0.00 0.00 0.00 0.00 0.00 0.00 0.00 0.00 0.00 0.00 0.00 0.00 0.00 0.00 0.00 0.00 0.00 0.00 0.00 0.00 0.00 0.00 0.00 0.00 0.00 0.00 0.00 0.00 0.00 0.00 0.00 0.00 0.00
0.00 0.00 0.00 0.00 0.00 0.00 0.00 0.00 0.00 0.00 0.00 0.00 0.00 0.00 0.00 0.00 0.00 0.00 0.00 0.00 0.00 0.00 0.00 0.00 0.00 0.00 0.00 0.00 0.00 0.00 0.00 0.00 0.00 0.00 0.00 0.00 0.00 0.00 0.00 0.00 0.00 0.00 0.00 0.00
0.00 0.00 0.00 0.00 0.00 0.00 0.00 0.00 0.00 0.00 0.00 0.00 0.00 0.00 0.00 0.00 0.00 0.00 0.00 0.00 0.00 0.00 0.00 0.00 0.00 0.00 0.00 0.00 0.00 0.00 0.00 0.00 0.00 0.00 0.00 0.00 0.00 0.00 0.00 0.00 0.00 0.00 0.00 0.00
0.00 0.00 0.00 0.00 0.00 0.00 0.00 0.00 0.00 0.00 0.00 0.00 0.00 0.00 0.00 0.00 0.00 0.00 0.00 0.00 0.00 0.00 0.00 0.00 0.00 0.00 0.00 0.00 0.00 0.00 0.00 0.00 0.00 0.00 0.00 0.00 0.00 0.00 0.00 0.00 0.00 0.00 0.00 0.00
0.00 0.00 0.00 0.00 0.00 0.00 0.00 0.00 0.00 0.00 0.00 0.00 0.00 0.00 0.00 0.00 0.00 0.00 0.00 0.00 0.00 0.00 0.00 0.00 0.00 0.00 0.00 0.00 0.00 0.00 0.00 0.00 0.00 0.00 0.00 0.00 0.00 0.00 0.00 0.00 0.00 0.00 0.00 0.00
0.00 0.00 0.00 0.00 0.00 0.00 0.00 0.00 0.00 0.00 0.00 0.00 0.00 0.00 0.00 0.00 0.00 0.00 0.00 0.00 0.00 0.00 0.00 0.00 0.00 0.00 0.00 0.00 0.00 0.00 0.00 0.00 0.00 0.00 0.00 0.00 0.00 0.00 0.00 0.00 0.00 0.00 0.00 0.00
0.00 0.00 0.00 0.00 0.00 0.00 0.00 0.00 0.00 0.00 0.00 0.00 0.00 0.00 0.00 0.00 0.00 0.00 0.00 0.00 0.00 0.00 0.00 0.00 0.00 0.00 0.00 0.00 0.00 0.00 0.00 0.00 0.00 0.00 0.00 0.00 0.00 0.00 0.00 0.00 0.00 0.00 0.00 0.00
0.00 0.00 0.00 0.00 0.00 0.00 0.00 0.00 0.00 0.00 0.00 0.00 0.00 0.00 0.00 0.00 0.00 0.00 0.00 0.00 0.00 0.00 0.00 0.00 0.00 0.00 0.00 0.00 0.00 0.00 0.00 0.00 0.00 0.00 0.00 0.00 0.00 0.00 0.00 0.00 0.00 0.00 0.00 0.00
0.00 0.00 0.00 0.00 0.00 0.00 0.00 0.00 0.00 0.00 0.00 0.00 0.00 0.00 0.00 0.00 0.00 0.00 0.00 0.00 0.00 0.00 0.00 0.00 0.00 0.00 0.00 0.00 0.00 0.00 0.00 0.00 0.00 0.00 0.00 0.00 0.00 0.00 0.00 0.00 0.00 0.00 0.00 0.00
0.00 0.00 0.00 0.00 0.00 0.00 0.00 0.00 0.00 0.00 0.00 0.00 0.00 0.00 0.00 0.00 0.00 0.00 0.00 0.00 0.00 0.00 0.00 0.00 0.00 0.00 0.00 0.00 0.00 0.00 0.00 0.00 0.00 0.00 0.00 0.00 0.00 0.00 0.00 0.00 0.00 0.00 0.00 0.00
0.00 0.00 0.00 0.00 0.00 0.00 0.00 0.00 0.00 0.00 0.00 0.00 0.00 0.00 0.00 0.00 0.00 0.00 0.00 0.00 0.00 0.00 0.00 0.00 0.00 0.00 0.00 0.00 0.00 0.00 0.00 0.00 0.00 0.00 0.00 0.00 0.00 0.00 0.00 0.00 0.00 0.00 0.00 0.00
0.00 0.00 0.00 0.00 0.00 0.00 0.00 0.00 0.00 0.00 0.00 0.00 0.00 0.00 0.00 0.00 0.00 0.00 0.00 0.00 0.00 0.00 0.00 0.00 0.00 0.00 0.00 0.00 0.00 0.00 0.00 0.00 0.00 0.00 0.00 0.00 0.00 0.00 0.00 0.00 0.00 0.00 0.00 0.00
0.00 0.00 0.00 0.00 0.00 0.00 0.00 0.00 0.00 0.00 0.00 0.00 0.00 0.00 0.00 0.00 0.00 0.00 0.00 0.00 0.00 0.00 0.00 0.00 0.00 0.00 0.00 0.00 0.00 0.00 0.00 0.00 0.00 0.00 0.00 0.00 0.00 0.00 0.00 0.00 0.00 0.00 0.00 0.00
0.00 0.00 0.00 0.00 0.00 0.00 0.00 0.00 0.00 0.00 0.00 0.00 0.00 0.00 0.00 0.00 0.00 0.00 0.00 0.00 0.00 0.00 0.00 0.00 0.00 0.00 0.00 0.00 0.00 0.00 0.00 0.00 0.00 0.00 0.00 0.00 0.00 0.00 0.00 0.00 0.00 0.00 0.00 0.00
0.00 0.00 0.00 0.00 0.00 0.00 0.00 0.00 0.00 0.00 0.00 0.00 0.00 0.00 0.00 0.00 0.00 0.00 0.00 0.00 0.00 0.00 0.00 0.00 0.00 0.00 0.00 0.00 0.00 0.00 0.00 0.00 0.00 0.00 0.00 0.00 0.00 0.00 0.00 0.00 0.00 0.00 0.00 0.00
0.00 0.00 0.00 0.00 0.00 0.00 0.00 0.00 0.00 0.00 0.00 0.00 0.00 0.00 0.00 0.00 0.00 0.00 0.00 0.00 0.00 0.00 0.00 0.00 0.00 0.00 0.00 0.00 0.00 0.00 0.00 0.00 0.00 0.00 0.00 0.00 0.00 0.00 0.00 0.00 0.00 0.00 0.00 0.00
0.00 0.00 0.00 0.00 0.00 0.00 0.00 0.00 0.00 0.00 0.00 0.00 0.00 0.00 0.00 0.00 0.00 0.00 0.00 0.00 0.00 0.00 0.00 0.00 0.00 0.00 0.00 0.00 0.00 0.00 0.00 0.00 0.00 0.00 0.00 0.00 0.00 0.00 0.00 0.00 0.00 0.00 0.00 0.00
0.00 0.00 0.00 0.00 0.00 0.00 0.00 0.00 0.00 0.00 0.00 0.00 0.00 0.00 0.00 0.00 0.00 0.00 0.00 0.00 0.00 0.00 0.00 0.00 0.00 0.00 0.00 0.00 0.00 0.00 0.00 0.00 0.00 0.00 0.00 0.00 0.00 0.00 0.00 0.00 0.00 0.00 0.00 0.00
0.00 0.00 0.00 0.00 0.00 0.00 0.00 0.00 0.00 0.00 0.00 0.00 0.00 0.00 0.00 0.00 0.00 0.00 0.00 0.00 0.00 0.00 0.00 0.00 0.00 0.00 0.00 0.00 0.00 0.00 0.00 0.00 0.00 0.00 0.00 0.00 0.00 0.00 0.00 0.00 0.00 0.00 0.00 0.00
0.00 0.00 0.00 0.00 0.00 0.00 0.00 0.00 0.00 0.00 0.00 0.00 0.00 0.00 0.00 0.00 0.00 0.00 0.00 0.00 0.00 0.00 0.00 0.00 0.00 0.00 0.00 0.00 0.00 0.00 0.00 0.00 0.00 0.00 0.00 0.00 0.00 0.00 0.00 0.00 0.00 0.00 0.00 0.00
0.00 0.00 0.00 0.00 0.00 0.00 0.00 0.00 0.00 0.00 0.00 0.00 0.00 0.00 0.00 0.00 0.00 0.00 0.00 0.00 0.00 0.00 0.00 0.00 0.00 0.00 0.00 0.00 0.00 0.00 0.00 0.00 0.00 0.00 0.00 0.00 0.00 0.00 0.00 0.00 0.00 0.00 0.00 0.00
0.00 0.00 0.00 0.00 0.00 0.00 0.00 0.00 0.00 0.00 0.00 0.00 0.00 0.00 0.00 0.00 0.00 0.00 0.00 0.00 0.00 0.00 0.00 0.00 0.00 0.00 0.00 0.00 0.00 0.00 0.00 0.00 0.00 0.00 0.00 0.00 0.00 0.00 0.00 0.00 0.00 0.00 0.00 0.00
0.00 0.00 0.00 0.00 0.00 0.00 0.00 0.00 0.00 0.00 0.00 0.00 0.00 0.00 0.00 0.00 0.00 0.00 0.00 0.00 0.00 0.00 0.00 0.00 0.00 0.00 0.00 0.00 0.00 0.00 0.00 0.00 0.00 0.00 0.00 0.00 0.00 0.00 0.00 0.00 0.00 0.00 0.00 0.00
0.00 0.00 0.00 0.00 0.00 0.00 0.00 0.00 0.00 0.00 0.00 0.00 0.00 0.00 0.00 0.00 0.00 0.00 0.00 0.00 0.00 0.00 0.00 0.00 0.00 0.00 0.00 0.00 0.00 0.00 0.00 0.00 0.00 0.00 0.00 0.00 0.00 0.00 0.00 0.00 0.00 0.00 0.00 0.00
0.00 0.00 0.00 0.00 0.00 0.00 0.00 0.00 0.00 0.00 0.00 0.00 0.00 0.00 0.00 0.00 0.00 0.00 0.00 0.00 0.00 0.00 0.00 0.00 0.00 0.00 0.00 0.00 0.00 0.00 0.00 0.00 0.00 0.00 0.00 0.00 0.00 0.00 0.00 0.00 0.00 0.00 0.00 0.00
MSLP
1018.67 1019.18 1019.66 1020.10 1020.46 1020.75 1020.96 1021.13 1021.26 1021.40 1021.55 1021.74 1021.95 1022.19 1022.44 1022.69 1022.93 1023.16 1023.39 1023.65 1023.95 1024.34 1024.84 1025.46 1026.20 1027.02 1027.89 1028.75 1029.53 1030.20 1030.70 1031.03 1031.20 1031.24 1031.18 1031.07 1030.96 1030.87 1030.81 1030.78 1030.77 1030.75 1030.70 1030.61
1019.17 1019.59 1019.96 1020.26 1020.50 1020.67 1020.80 1020.90 1021.01 1021.14 1021.30 1021.48 1021.68 1021.89 1022.08 1022.24 1022.39 1022.53 1022.68 1022.87 1023.15 1023.55 1024.07 1024.74 1025.53 1026.41 1027.34 1028.25 1029.10 1029.82 1030.39 1030.80 1031.05 1031.16 1031.16 1031.10 1031.01 1030.90 1030.81 1030.72 1030.65 1030.57 1030.48 1030.38
1019.59 1019.93 1020.20 1020.41 1020.55 1020.65 1020.73 1020.81 1020.91 1021.04 1021.19 1021.34 1021.49 1021.61 1021.69 1021.74 1021.77 1021.80 1021.88 1022.04 1022.32 1022.74 1023.32 1024.06 1024.92 1025.87 1026.84 1027.80 1028.68 1029.44 1030.06 1030.53 1030.84 1031.02 1031.09 1031.07 1031.00 1030.89 1030.76 1030.62 1030.48 1030.35 1030.22 1030.09
1019.93 1020.20 1020.41 1020.55 1020.64 1020.71 1020.78 1020.87 1020.98 1021.10 1021.23 1021.32 1021.37 1021.36 1021.30 1021.19 1021.07 1020.99 1021.01 1021.15 1021.45 1021.94 1022.61 1023.44 1024.39 1025.40 1026.42 1027.39 1028.29 1029.06 1029.70 1030.19 1030.55 1030.78 1030.91 1030.94 1030.90 1030.79 1030.64 1030.47 1030.28 1030.10 1029.93 1029.77
1020.20 1020.42 1020.58 1020.69 1020.77 1020.85 1020.95 1021.07 1021.20 1021.32 1021.40 1021.40 1021.32 1021.14 1020.89 1020.60 1020.32 1020.13 1020.08 1020.22 1020.58 1021.16 1021.95 1022.89 1023.93 1025.01 1026.07 1027.05 1027.93 1028.69 1029.31 1029.80 1030.17 1030.44 1030.61 1030.69 1030.68 1030.60 1030.46 1030.27 1030.05 1029.83 1029.62 1029.43
1020.42 1020.60 1020.72 1020.82 1020.92 1021.04 1021.19 1021.35 1021.51 1021.63 1021.65 1021.55 1021.31 1020.95 1020.49 1019.99 1019.55 1019.25 1019.15 1019.30 1019.73 1020.43 1021.34 1022.41 1023.55 1024.70 1025.78 1026.76 1027.60 1028.31 1028.88 1029.35 1029.71 1029.99 1030.20 1030.32 1030.36 1030.32 1030.20 1030.02 1029.80 1029.55 1029.31 1029.09
1020.61 1020.75 1020.85 1020.95 1021.08 1021.25 1021.46 1021.68 1021.87 1021.98 1021.94 1021.73 1021.33 1020.76 1020.09 1019.41 1018.81 1018.39 1018.25 1018.43 1018.94 1019.75 1020.79 1021.99 1023.24 1024.45 1025.55 1026.51 1027.30 1027.94 1028.44 1028.85 1029.19 1029.47 1029.70 1029.87 1029.97 1029.98 1029.91 1029.75 1029.54 1029.29 1029.03 1028.79
1020.79 1020.88 1020.97 1021.07 1021.23 1021.45 1021.71 1021.98 1022.20 1022.29 1022.20 1021.87 1021.32 1020.58 1019.73 1018.86 1018.12 1017.62 1017.44 1017.64 1018.23 1019.14 1020.31 1021.62 1022.96 1024.23 1025.34 1026.27 1027.01 1027.57 1028.00 1028.35 1028.65 1028.92 1029.16 1029.37 1029.52 1029.60 1029.58 1029.47 1029.29 1029.04 1028.77 1028.50
1020.97 1021.02 1021.07 1021.18 1021.35 1021.60 1021.90 1022.20 1022.43 1022.50 1022.35 1021.94 1021.27 1020.39 1019.38 1018.38 1017.54 1016.96 1016.76 1016.98 1017.62 1018.62 1019.88 1021.29 1022.69 1024.00 1025.12 1026.02 1026.71 1027.21 1027.57 1027.85 1028.11 1028.36 1028.62 1028.86 1029.06 1029.20 1029.24 1029.18 1029.02 1028.79 1028.52 1028.23
1021.13 1021.14 1021.17 1021.26 1021.42 1021.68 1021.99 1022.29 1022.51 1022.55 1022.36 1021.88 1021.12 1020.15 1019.05 1017.96 1017.05 1016.43 1016.21 1016.44 1017.11 1018.16 1019.49 1020.94 1022.39 1023.72 1024.84 1025.73 1026.38 1026.83 1027.14 1027.38 1027.60 1027.84 1028.10 1028.36 1028.60 1028.79 1028.87 1028.85 1028.73 1028.51 1028.24 1027.93
1021.29 1021.26 1021.25 1021.31 1021.44 1021.66 1021.94 1022.21 1022.39 1022.39 1022.15 1021.63 1020.83 1019.82 1018.69 1017.57 1016.64 1016.01 1015.78 1016.01 1016.69 1017.75 1019.08 1020.55 1022.00 1023.34 1024.46 1025.34 1025.98 1026.41 1026.70 1026.92 1027.13 1027.36 1027.62 1027.90 1028.16 1028.36 1028.48 1028.49 1028.38 1028.17 1027.89 1027.56
1021.43 1021.37 1021.33 1021.33 1021.41 1021.55 1021.75 1021.95 1022.05 1022.00 1021.72 1021.17 1020.37 1019.36 1018.25 1017.17 1016.25 1015.64 1015.41 1015.63 1016.29 1017.32 1018.62 1020.06 1021.49 1022.82 1023.94 1024.83 1025.48 1025.93 1026.24 1026.47 1026.69 1026.92 1027.18 1027.46 1027.72 1027.93 1028.05 1028.06 1027.96 1027.75 1027.45 1027.11
1021.56 1021.49 1021.41 1021.35 1021.33 1021.37 1021.45 1021.52 1021.52 1021.38 1021.04 1020.48 1019.70 1018.74 1017.70 1016.69 1015.84 1015.26 1015.05 1015.26 1015.87 1016.84 1018.07 1019.44 1020.83 1022.14 1023.26 1024.18 1024.88 1025.38 1025.74 1026.02 1026.27 1026.51 1026.78 1027.04 1027.28 1027.48 1027.58 1027.58 1027.46 1027.24 1026.93 1026.58
1021.70 1021.62 1021.50 1021.36 1021.24 1021.14 1021.05 1020.96 1020.81 1020.56 1020.15 1019.58 1018.83 1017.95 1017.01 1016.10 1015.35 1014.83 1014.65 1014.83 1015.39 1016.27 1017.41 1018.70 1020.03 1021.30 1022.44 1023.40 1024.17 1024.75 1025.20 1025.55 1025.85 1026.12 1026.39 1026.63 1026.85 1027.01 1027.08 1027.05 1026.91 1026.67 1026.35 1025.99
1021.85 1021.78 1021.62 1021.40 1021.14 1020.87 1020.60 1020.31 1019.98 1019.59 1019.10 1018.50 1017.79 1017.00 1016.18 1015.40 1014.76 1014.33 1014.18 1014.35 1014.85 1015.64 1016.67 1017.87 1019.12 1020.36 1021.51 1022.52 1023.37 1024.06 1024.62 1025.06 1025.42 1025.73 1026.00 1026.23 1026.41 1026.52 1026.55 1026.49 1026.33 1026.08 1025.75 1025.38
1022.03 1021.96 1021.76 1021.45 1021.05 1020.60 1020.12 1019.62 1019.09 1018.54 1017.95 1017.32 1016.64 1015.94 1015.24 1014.61 1014.10 1013.76 1013.66 1013.83 1014.27 1014.97 1015.90 1016.99 1018.18 1019.38 1020.53 1021.60 1022.54 1023.34 1024.00 1024.54 1024.98 1025.33 1025.61 1025.82 1025.96 1026.03 1026.02 1025.93 1025.75 1025.50 1025.18 1024.81
1022.19 1022.12 1021.88 1021.48 1020.95 1020.32 1019.63 1018.91 1018.19 1017.48 1016.79 1016.11 1015.46 1014.84 1014.27 1013.78 1013.39 1013.17 1013.12 1013.30 1013.70 1014.33 1015.16 1016.15 1017.26 1018.43 1019.59 1020.69 1021.71 1022.61 1023.37 1024.00 1024.51 1024.90 1025.18 1025.38 1025.49 1025.52 1025.48 1025.37 1025.19 1024.94 1024.64 1024.29
1022.29 1022.20 1021.92 1021.44 1020.79 1020.00 1019.13 1018.22 1017.32 1016.46 1015.67 1014.95 1014.33 1013.78 1013.32 1012.97 1012.72 1012.59 1012.62 1012.82 1013.20 1013.76 1014.51 1015.43 1016.47 1017.58 1018.73 1019.86 1020.93 1021.90 1022.74 1023.44 1024.00 1024.41 1024.71 1024.89 1024.98 1024.99 1024.93 1024.81 1024.64 1024.43 1024.16 1023.84
1022.21 1022.11 1021.79 1021.25 1020.50 1019.59 1018.58 1017.52 1016.47 1015.50 1014.63 1013.89 1013.28 1012.81 1012.46 1012.23 1012.10 1012.09 1012.19 1012.42 1012.80 1013.32 1014.01 1014.85 1015.82 1016.88 1018.00 1019.13 1020.22 1021.23 1022.11 1022.85 1023.43 1023.86 1024.15 1024.32 1024.40 1024.40 1024.34 1024.24 1024.10 1023.92 1023.70 1023.42
1021.88 1021.75 1021.39 1020.80 1019.99 1019.01 1017.91 1016.75 1015.63 1014.58 1013.67 1012.93 1012.35 1011.95 1011.69 1011.57 1011.56 1011.65 1011.83 1012.11 1012.50 1013.00 1013.65 1014.42 1015.32 1016.33 1017.40 1018.49 1019.57 1020.57 1021.46 1022.20 1022.79 1023.22 1023.50 1023.67 1023.74 1023.74 1023.69 1023.62 1023.52 1023.40 1023.23 1023.01
1021.19 1021.02 1020.63 1020.02 1019.19 1018.18 1017.05 1015.87 1014.72 1013.66 1012.75 1012.02 1011.49 1011.15 1010.99 1010.97 1011.06 1011.25 1011.51 1011.84 1012.25 1012.75 1013.36 1014.09 1014.93 1015.86 1016.87 1017.91 1018.93 1019.90 1020.75 1021.48 1022.05 1022.47 1022.75 1022.91 1022.98 1023.00 1022.98 1022.95 1022.90 1022.83 1022.73 1022.56
1020.11 1019.89 1019.47 1018.85 1018.04 1017.05 1015.95 1014.81 1013.69 1012.67 1011.80 1011.12 1010.65 1010.38 1010.29 1010.36 1010.54 1010.81 1011.14 1011.53 1011.98 1012.49 1013.08 1013.77 1014.55 1015.42 1016.35 1017.31 1018.27 1019.17 1019.98 1020.67 1021.21 1021.62 1021.90 1022.06 1022.15 1022.20 1022.21 1022.22 1022.22 1022.21 1022.16 1022.05
1018.66 1018.36 1017.92 1017.31 1016.53 1015.61 1014.59 1013.54 1012.50 1011.56 1010.77 1010.16 1009.76 1009.55 1009.53 1009.67 1009.93 1010.26 1010.66 1011.10 1011.59 1012.11 1012.70 1013.36 1014.09 1014.90 1015.75 1016.63 1017.51 1018.35 1019.11 1019.75 1020.28 1020.68 1020.97 1021.16 1021.28 1021.36 1021.42 1021.47 1021.52 1021.55 1021.54 1021.47
1016.90 1016.53 1016.05 1015.45 1014.73 1013.91 1013.00 1012.06 1011.15 1010.32 1009.62 1009.09 1008.76 1008.62 1008.65 1008.84 1009.15 1009.54 1009.99 1010.48 1011.00 1011.55 1012.15 1012.79 1013.48 1014.23 1015.02 1015.83 1016.64 1017.42 1018.13 1018.75 1019.28 1019.69 1020.01 1020.24 1020.42 1020.54 1020.65 1020.74 1020.81 1020.87 1020.89 1020.86
1014.98 1014.51 1013.99 1013.41 1012.76 1012.03 1011.24 1010.44 1009.66 1008.95 1008.36 1007.92 1007.64 1007.55 1007.63 1007.85 1008.19 1008.62 1009.11 1009.64 1010.19 1010.77 1011.37 1012.00 1012.67 1013.38 1014.12 1014.88 1015.64 1016.37 1017.06 1017.69 1018.23 1018.69 1019.06 1019.36 1019.60 1019.79 1019.94 1020.07 1020.17 1020.23 1020.26 1020.23
1013.04 1012.48 1011.93 1011.36 1010.76 1010.13 1009.47 1008.80 1008.15 1007.55 1007.06 1006.68 1006.46 1006.40 1006.49 1006.73 1007.08 1007.53 1008.04 1008.59 1009.17 1009.76 1010.38 1011.01 1011.66 1012.35 1013.05 1013.78 1014.51 1015.23 1015.93 1016.58 1017.18 1017.71 1018.16 1018.55 1018.87 1019.12 1019.33 1019.49 1019.60 1019.67 1019.68 1019.64
Thickness
5729 5717 5705 5700 5700 5695 5694 5690 5686 5689 5679 5672 5667 5669 5671 5656 5647 5641 5635 5628 5622 5615 5606 5594 5581 5567 5554 5541 5529 5518 5507 5496 5485 5473 5460 5448 5434 5421 5406 5389 5371 5353 5336 5321
5716 5707 5704 5705 5700 5694 5691 5686 5687 5685 5677 5672 5670 5673 5680 5665 5653 5646 5640 5633 5626 5617 5607 5594 5579 5565 5552 5538 5525 5512 5500 5488 5477 5464 5451 5438 5424 5410 5395 5378 5359 5341 5325 5311
5706 5698 5703 5700 5697 5692 5691 5687 5683 5677 5682 5677 5665 5671 5675 5670 5657 5648 5642 5638 5632 5622 5610 5596 5579 5564 5549 5535 5521 5508 5494 5481 5469 5456 5442 5428 5414 5399 5383 5366 5348 5331 5315 5301
5707 5701 5698 5694 5694 5691 5685 5683 5680 5674 5664 5669 5669 5657 5664 5662 5653 5648 5642 5637 5632 5626 5614 5599 5581 5563 5547 5532 5516 5502 5487 5474 5461 5448 5433 5418 5403 5387 5372 5355 5338 5322 5307 5293
5702 5697 5693 5690 5691 5686 5686 5684 5676 5671 5663 5660 5670 5658 5670 5664 5653 5650 5646 5641 5634 5626 5615 5601 5583 5564 5546 5528 5511 5496 5481 5468 5454 5440 5425 5410 5394 5378 5362 5346 5330 5314 5300 5286
5697 5698 5696 5692 5690 5687 5684 5681 5676 5668 5661 5655 5676 5665 5668 5665 5668 5664 5657 5647 5637 5627 5615 5600 5581 5561 5542 5524 5507 5490 5476 5462 5448 5433 5418 5403 5387 5370 5354 5337 5321 5307 5293 5280
5689 5691 5692 5690 5684 5683 5679 5672 5667 5660 5650 5664 5674 5666 5670 5676 5678 5670 5659 5649 5639 5626 5612 5595 5575 5557 5539 5520 5503 5486 5471 5457 5442 5427 5412 5397 5380 5364 5347 5330 5315 5300 5287 5275
5692 5684 5687 5688 5683 5676 5682 5673 5657 5651 5657 5666 5667 5661 5680 5680 5674 5667 5658 5647 5636 5623 5608 5592 5573 5555 5536 5518 5500 5483 5467 5452 5438 5422 5407 5391 5375 5358 5342 5325 5310 5295 5282 5270
5685 5682 5682 5683 5683 5676 5677 5675 5670 5656 5660 5655 5668 5682 5672 5674 5663 5656 5648 5640 5629 5618 5605 5588 5570 5552 5534 5516 5498 5481 5465 5449 5434 5418 5403 5387 5371 5354 5338 5322 5306 5292 5280 5267
5678 5676 5680 5676 5674 5671 5671 5668 5661 5652 5646 5640 5663 5677 5672 5662 5662 5656 5648 5639 5630 5617 5602 5585 5568 5551 5533 5515 5497 5479 5462 5446 5431 5415 5399 5384 5367 5351 5335 5319 5304 5291 5278 5265
5674 5667 5672 5670 5666 5671 5662 5662 5659 5655 5652 5634 5635 5659 5690 5683 5677 5666 5656 5647 5634 5618 5602 5585 5567 5549 5531 5512 5494 5476 5460 5444 5427 5412 5396 5380 5364 5349 5333 5318 5303 5290 5277 5264
5670 5662 5666 5675 5675 5673 5673 5670 5662 5645 5647 5644 5632 5653 5693 5687 5679 5670 5660 5651 5638 5620 5602 5584 5565 5546 5528 5510 5492 5475 5458 5442 5426 5409 5393 5377 5362 5347 5331 5317 5302 5289 5276 5264
5662 5654 5655 5661 5660 5659 5659 5662 5661 5654 5641 5631 5628 5652 5681 5677 5672 5665 5656 5647 5634 5617 5599 5582 5563 5545 5527 5509 5492 5475 5458 5441 5425 5408 5391 5375 5360 5345 5330 5316 5302 5288 5276 5264
5653 5649 5650 5657 5661 5661 5657 5657 5654 5644 5630 5631 5641 5658 5672 5670 5665 5661 5653 5644 5631 5615 5598 5580 5563 5545 5528 5510 5493 5475 5458 5441 5424 5406 5389 5374 5359 5344 5330 5315 5301 5289 5277 5265
5644 5641 5654 5661 5666 5662 5659 5658 5651 5643 5646 5641 5653 5661 5672 5674 5669 5664 5657 5644 5629 5613 5597 5581 5564 5546 5528 5510 5493 5476 5459 5441 5424 5406 5388 5373 5358 5344 5329 5315 5302 5289 5277 5266
5638 5635 5646 5651 5661 5655 5650 5656 5653 5649 5647 5649 5652 5657 5675 5673 5668 5660 5652 5641 5627 5614 5599 5582 5565 5548 5531 5513 5495 5477 5459 5441 5423 5405 5388 5373 5358 5343 5329 5315 5302 5290 5278 5268
5634 5631 5632 5634 5647 5642 5645 5668 5659 5655 5659 5654 5647 5659 5671 5668 5661 5654 5648 5640 5628 5616 5601 5584 5568 5551 5534 5516 5498 5478 5459 5441 5422 5404 5388 5372 5357 5343 5329 5316 5303 5291 5280 5270
5634 5628 5621 5620 5632 5624 5672 5683 5679 5664 5665 5661 5661 5665 5666 5663 5661 5655 5648 5640 5630 5618 5603 5587 5570 5552 5535 5517 5497 5477 5458 5439 5421 5404 5388 5373 5358 5344 5331 5318 5305 5293 5282 5272
5622 5623 5613 5608 5611 5634 5671 5670 5667 5655 5656 5668 5662 5663 5662 5659 5647 5649 5649 5642 5632 5619 5604 5588 5571 5553 5534 5515 5495 5475 5456 5438 5420 5405 5390 5376 5361 5347 5333 5319 5307 5295 5284 5273
5609 5610 5603 5599 5595 5612 5662 5662 5662 5654 5646 5671 5665 5660 5657 5645 5630 5646 5650 5640 5628 5616 5601 5585 5568 5550 5531 5512 5493 5473 5455 5438 5423 5409 5394 5379 5364 5349 5335 5322 5309 5297 5286 5275
5594 5594 5588 5590 5590 5617 5658 5647 5644 5636 5649 5675 5667 5659 5651 5637 5639 5643 5637 5629 5619 5608 5594 5580 5564 5548 5530 5511 5492 5473 5457 5443 5429 5413 5397 5382 5367 5352 5338 5325 5312 5299 5288 5278
5601 5591 5589 5592 5588 5615 5646 5635 5635 5651 5667 5667 5661 5655 5648 5643 5642 5634 5625 5616 5607 5597 5586 5573 5558 5543 5526 5510 5492 5475 5461 5448 5432 5416 5399 5384 5368 5354 5341 5327 5314 5302 5290 5278
5618 5620 5614 5614 5629 5654 5646 5647 5652 5655 5653 5655 5652 5649 5643 5637 5634 5627 5617 5608 5599 5589 5578 5567 5553 5537 5522 5508 5493 5478 5465 5449 5433 5416 5400 5385 5370 5357 5343 5329 5316 5303 5291 5279
5626 5630 5622 5623 5639 5648 5645 5644 5647 5646 5645 5649 5646 5642 5636 5630 5628 5622 5614 5604 5594 5584 5573 5561 5547 5533 5519 5507 5494 5481 5466 5450 5433 5417 5401 5386 5372 5358 5345 5332 5319 5305 5293 5280
5627 5615 5610 5618 5634 5637 5644 5645 5646 5646 5646 5644 5643 5639 5632 5626 5623 5619 5612 5603 5594 5582 5570 5557 5546 5535 5521 5507 5494 5481 5466 5450 5433 5417 5402 5388 5375 5360 5347 5334 5321 5308 5296 5284
5625 5612 5607 5623 5636 5624 5634 5645 5643 5638 5639 5638 5635 5634 5632 5624 5621 5616 5609 5601 5590 5579 5567 5554 5543 5533 5521 5507 5494 5481 5467 5451 5434 5419 5404 5390 5376 5362 5348 5334 5322 5311 5300 5290